When you browse on this site, cookies collect data to enhance your experience and personalize the content and advertising you see.
Visit our Privacy Policy to learn more. By continuing to use the site, you agree to this use of cookies and data.
  • în România
  • Lista ţărilor
  • Pe 7 zile
  • Temperatura apei
  • Meteo pe hartă
  • Widget-uri
  • user-avatar
    Intrare

    Meteo pe oră la Leicester

    Astăzi, 5 Aprilie, Duminică

    Timp Temperatura Precipitaţii Vânt Presiune Umiditate
    00:00 +5°C° 0 mm 4 m/s 757 mmHg 85%
    01:00 +5°C° 0 mm 4 m/s 756 mmHg 84%
    02:00 +5°C° 0 mm 4 m/s 756 mmHg 83%
    03:00 +5°C° 0 mm 4 m/s 755 mmHg 83%
    04:00 +5°C° 0 mm 4 m/s 755 mmHg 84%
    05:00 +5°C° 0 mm 4 m/s 755 mmHg 85%
    06:00 +5°C° 0 mm 4 m/s 755 mmHg 87%
    07:00 +6°C° 0 mm 5 m/s 754 mmHg 83%
    08:00 +8°C° 0 mm 6 m/s 754 mmHg 79%
    09:00 +10°C° 0 mm 7 m/s 754 mmHg 75%
    10:00 +12°C° 0 mm 7 m/s 753 mmHg 71%
    11:00 +14°C° 0 mm 7 m/s 753 mmHg 68%
    12:00 +16°C° 0 mm 7 m/s 752 mmHg 65%
    13:00 +16°C° 0 mm 7 m/s 752 mmHg 64%
    14:00 +16°C° 0 mm 7 m/s 751 mmHg 63%
    15:00 +17°C° 0 mm 7 m/s 751 mmHg 62%
    16:00 +15°C° 0 mm 7 m/s 750 mmHg 67%
    17:00 +14°C° 0 mm 6 m/s 750 mmHg 72%
    18:00 +13°C° 0 mm 6 m/s 750 mmHg 77%
    19:00 +13°C° 0 mm 6 m/s 750 mmHg 78%
    20:00 +11°C° 0 mm 6 m/s 750 mmHg 79%
    21:00 +11°C° 0 mm 6 m/s 750 mmHg 80%
    22:00 +11°C° 0 mm 7 m/s 750 mmHg 80%
    23:00 +11°C° 0 mm 7 m/s 750 mmHg 81%

    Mâine, 6 Aprilie, Luni

    Timp Temperatura Precipitaţii Vânt Presiune Umiditate
    00:00 +11°C° 0 mm 8 m/s 750 mmHg 81%
    01:00 +11°C° 0 mm 7 m/s 750 mmHg 83%
    02:00 +11°C° 0 mm 7 m/s 750 mmHg 84%
    03:00 +11°C° 0 mm 7 m/s 750 mmHg 86%
    04:00 +10°C° 0 mm 6 m/s 751 mmHg 87%
    05:00 +9°C° 0 mm 5 m/s 752 mmHg 88%
    06:00 +7°C° 0 mm 4 m/s 752 mmHg 89%
    07:00 +10°C° 0 mm 4 m/s 753 mmHg 84%
    08:00 +10°C° 0 mm 5 m/s 754 mmHg 79%
    09:00 +12°C° 0 mm 5 m/s 755 mmHg 73%
    10:00 +12°C° 0.1 mm 5 m/s 755 mmHg 70%
    11:00 +13°C° 0.1 mm 5 m/s 756 mmHg 66%
    12:00 +14°C° 0.1 mm 5 m/s 757 mmHg 63%
    13:00 +14°C° 0.1 mm 4 m/s 757 mmHg 63%
    14:00 +14°C° 0.1 mm 4 m/s 758 mmHg 64%
    15:00 +14°C° 0.1 mm 4 m/s 759 mmHg 64%
    16:00 +13°C° 0 mm 4 m/s 759 mmHg 67%
    17:00 +12°C° 0 mm 3 m/s 760 mmHg 70%
    18:00 +11°C° 0 mm 3 m/s 761 mmHg 72%
    19:00 +9°C° 0 mm 3 m/s 761 mmHg 73%
    20:00 +8°C° 0 mm 2 m/s 762 mmHg 74%
    21:00 +7°C° 0 mm 2 m/s 763 mmHg 75%
    22:00 +6°C° 0 mm 2 m/s 764 mmHg 77%
    23:00 +6°C° 0 mm 1 m/s 764 mmHg 80%

    Poimâine, 7 Aprilie, Marţi

    Timp Temperatura Precipitaţii Vânt Presiune Umiditate
    00:00 +6°C° 0 mm 1 m/s 765 mmHg 82%
    01:00 +6°C° 0 mm 1 m/s 765 mmHg 83%
    02:00 +5°C° 0 mm 1 m/s 765 mmHg 83%
    03:00 +4°C° 0 mm 0 m/s 766 mmHg 84%
    04:00 +4°C° 0 mm 0 m/s 766 mmHg 84%
    05:00 +5°C° 0 mm 1 m/s 766 mmHg 84%
    06:00 +5°C° 0 mm 1 m/s 766 mmHg 84%
    07:00 +7°C° 0 mm 1 m/s 766 mmHg 80%
    08:00 +8°C° 0 mm 2 m/s 767 mmHg 75%
    09:00 +10°C° 0 mm 3 m/s 767 mmHg 70%
    10:00 +12°C° 0 mm 3 m/s 767 mmHg 67%
    11:00 +13°C° 0 mm 3 m/s 767 mmHg 64%
    12:00 +14°C° 0 mm 3 m/s 767 mmHg 60%
    13:00 +14°C° 0 mm 3 m/s 766 mmHg 61%
    14:00 +14°C° 0 mm 3 m/s 766 mmHg 62%
    15:00 +14°C° 0 mm 3 m/s 766 mmHg 63%
    16:00 +15°C° 0 mm 2 m/s 766 mmHg 66%
    17:00 +14°C° 0 mm 2 m/s 766 mmHg 69%
    18:00 +14°C° 0 mm 1 m/s 766 mmHg 72%
    19:00 +12°C° 0 mm 1 m/s 766 mmHg 74%
    20:00 +11°C° 0 mm 1 m/s 766 mmHg 77%
    21:00 +9°C° 0 mm 0 m/s 766 mmHg 80%
    22:00 +9°C° 0 mm 1 m/s 766 mmHg 82%
    23:00 +9°C° 0 mm 1 m/s 766 mmHg 84%

    8 Aprilie, Miercuri

    Timp Temperatura Precipitaţii Vânt Presiune Umiditate
    00:00 +8°C° 0 mm 1 m/s 766 mmHg 86%
    01:00 +8°C° 0 mm 1 m/s 766 mmHg 87%
    02:00 +6°C° 0 mm 0 m/s 765 mmHg 87%
    03:00 +6°C° 0 mm 0 m/s 765 mmHg 88%
    04:00 +6°C° 0 mm 0 m/s 765 mmHg 88%
    05:00 +6°C° 0 mm 0 m/s 765 mmHg 88%
    06:00 +6°C° 0 mm 0 m/s 765 mmHg 88%
    07:00 +8°C° 0 mm 0 m/s 765 mmHg 82%
    08:00 +10°C° 0 mm 0 m/s 765 mmHg 77%
    09:00 +12°C° 0 mm 0 m/s 765 mmHg 72%
    10:00 +13°C° 0 mm 0 m/s 765 mmHg 66%
    11:00 +15°C° 0 mm 0 m/s 764 mmHg 61%
    12:00 +16°C° 0 mm 0 m/s 764 mmHg 55%
    13:00 +18°C° 0 mm 1 m/s 764 mmHg 54%
    14:00 +18°C° 0 mm 1 m/s 764 mmHg 53%
    15:00 +18°C° 0 mm 1 m/s 763 mmHg 52%
    16:00 +16°C° 0 mm 1 m/s 763 mmHg 58%
    17:00 +15°C° 0 mm 1 m/s 763 mmHg 63%
    18:00 +14°C° 0 mm 1 m/s 763 mmHg 69%
    19:00 +13°C° 0 mm 1 m/s 763 mmHg 72%
    20:00 +12°C° 0 mm 1 m/s 763 mmHg 74%
    21:00 +9°C° 0 mm 0 m/s 763 mmHg 77%
    22:00 +9°C° 0 mm 0 m/s 763 mmHg 78%
    23:00 +8°C° 0 mm 0 m/s 763 mmHg 79%

    9 Aprilie, Joi

    Timp Temperatura Precipitaţii Vânt Presiune Umiditate
    00:00 +8°C° 0 mm 0 m/s 763 mmHg 80%
    01:00 +8°C° 0 mm 0 m/s 763 mmHg 82%
    02:00 +7°C° 0 mm 0 m/s 763 mmHg 83%
    03:00 +7°C° 0 mm 0 m/s 763 mmHg 84%
    04:00 +8°C° 0 mm 1 m/s 763 mmHg 84%
    05:00 +8°C° 0 mm 1 m/s 763 mmHg 83%
    06:00 +9°C° 0 mm 1 m/s 763 mmHg 83%
    07:00 +10°C° 0 mm 1 m/s 763 mmHg 79%
    08:00 +12°C° 0 mm 1 m/s 763 mmHg 75%
    09:00 +14°C° 0 mm 2 m/s 763 mmHg 71%
    10:00 +15°C° 0 mm 2 m/s 763 mmHg 67%
    11:00 +16°C° 0 mm 2 m/s 763 mmHg 64%
    12:00 +17°C° 0 mm 2 m/s 763 mmHg 61%
    13:00 +17°C° 0 mm 2 m/s 763 mmHg 61%
    14:00 +17°C° 0 mm 2 m/s 763 mmHg 62%
    15:00 +17°C° 0 mm 2 m/s 763 mmHg 63%
    16:00 +16°C° 0 mm 2 m/s 763 mmHg 68%
    17:00 +15°C° 0 mm 2 m/s 762 mmHg 73%
    18:00 +13°C° 0 mm 3 m/s 762 mmHg 79%
    19:00 +11°C° 0 mm 3 m/s 763 mmHg 83%
    20:00 +10°C° 0 mm 3 m/s 763 mmHg 87%
    21:00 +8°C° 0 mm 3 m/s 763 mmHg 91%
    22:00 +8°C° 0 mm 3 m/s 763 mmHg 93%
    23:00 +8°C° 0 mm 3 m/s 763 mmHg 94%

    10 Aprilie, Vineri

    Timp Temperatura Precipitaţii Vânt Presiune Umiditate
    00:00 +8°C° 0 mm 3 m/s 763 mmHg 95%
    01:00 +8°C° 0 mm 3 m/s 763 mmHg 95%
    02:00 +7°C° 0 mm 2 m/s 762 mmHg 94%
    03:00 +7°C° 0 mm 2 m/s 762 mmHg 94%
    04:00 +7°C° 0 mm 2 m/s 762 mmHg 94%
    05:00 +7°C° 0 mm 2 m/s 762 mmHg 93%
    06:00 +7°C° 0 mm 2 m/s 762 mmHg 93%
    07:00 +9°C° 0 mm 2 m/s 762 mmHg 89%
    08:00 +12°C° 0 mm 2 m/s 761 mmHg 85%
    09:00 +12°C° 0 mm 3 m/s 761 mmHg 80%
    10:00 +14°C° 0 mm 3 m/s 761 mmHg 78%
    11:00 +16°C° 0 mm 3 m/s 761 mmHg 76%
    12:00 +17°C° 0 mm 3 m/s 760 mmHg 73%
    13:00 +18°C° 0.4 mm 3 m/s 760 mmHg 73%
    14:00 +18°C° 0.4 mm 3 m/s 760 mmHg 73%
    15:00 +18°C° 0.4 mm 3 m/s 759 mmHg 74%
    16:00 +17°C° 0.2 mm 3 m/s 759 mmHg 78%
    17:00 +16°C° 0.2 mm 3 m/s 759 mmHg 83%
    18:00 +13°C° 0.2 mm 3 m/s 759 mmHg 88%
    19:00 +13°C° 0 mm 3 m/s 759 mmHg 89%
    20:00 +12°C° 0 mm 3 m/s 759 mmHg 90%
    21:00 +12°C° 0 mm 3 m/s 759 mmHg 91%
    22:00 +13°C° 0 mm 2 m/s 759 mmHg 92%
    23:00 +13°C° 0 mm 2 m/s 759 mmHg 93%
    Arată mai mult